FW6369 Weather Reports


Display with metric or nautical units.
time (UTC)temp
F
wind
direction
speed
MPH
gust
MPH
rain 1hr
in
rain 24hr
in
rain mn
in
humidity
%
barometer
mb
20260831210057 71 84 0.0 2.0 0.00 0.00 0.00 64 1013.1
20260831204557 70 287 0.0 2.0 0.00 0.00 0.00 68 1013.2
20260831203108 69 0 0.0 3.0 0.00 0.00 0.00 72 1013.4
20260831201559 68 0 0.0 5.0 0.00 0.00 0.00 69 1013.4
20260831200057 68 92 0.0 3.0 0.00 0.00 0.00 70 1013.6
20260831194636 67 0 0.0 3.0 0.00 0.00 0.00 70 1013.8
20260831193100 67 0 0.0 2.0 0.00 0.00 0.00 71 1013.8
20260831191601 66 0 0.0 7.0 0.00 0.00 0.00 74 1014.0
20260831190113 66 187 0.0 3.0 0.00 0.00 0.00 72 1014.0
20260831184609 65 275 0.0 1.0 0.00 0.00 0.00 74 1014.0
20260831183109 65 250 0.0 1.0 0.00 0.00 0.00 74 1014.3
20260831181604 63 0 0.0 1.0 0.00 0.00 0.00 78 1014.2
20260831180100 60 257 0.0 1.0 0.00 0.00 0.00 81 1014.1
20260831174602 59 0 0.0 1.0 0.00 0.00 0.00 82 1014.1
20260831173105 58 0 0.0 1.0 0.00 0.00 0.00 85 1014.1
20260831171606 57 0 0.0 1.0 0.00 0.00 0.00 85 1014.0
20260831170112 57 0 0.0 1.0 0.00 0.00 0.00 85 1013.8
20260831164608 57 0 0.0 1.0 0.00 0.00 0.00 87 1013.8
20260831163058 56 0 0.0 1.0 0.00 0.00 0.00 87 1013.7
20260831161602 56 0 0.0 1.0 0.00 0.00 0.00 88 1013.6
20260831160106 56 0 0.0 0.0 0.00 0.00 0.00 89 1013.6
20260831154659 55 75 0.0 1.0 0.00 0.00 0.00 89 1013.5
20260831153054 55 32 0.0 0.0 0.00 0.00 0.00 90 1013.7
20260831151556 55 0 0.0 1.0 0.00 0.00 0.00 90 1013.5
20260831150057 55 0 0.0 1.0 0.00 0.00 0.00 91 1013.4
20260831144555 55 0 0.0 1.0 0.00 0.00 0.00 91 1013.0
20260831143112 54 0 0.0 0.0 0.00 0.00 0.00 92 1012.8
20260831141614 54 0 0.0 1.0 0.00 0.00 0.00 92 1012.5
20260831140057 53 0 0.0 0.0 0.00 0.00 0.00 93 1012.4
20260831134608 53 0 0.0 1.0 0.00 0.00 0.00 93 1012.3
20260831133055 53 0 0.0 0.0 0.00 0.00 0.00 94 1012.3
20260831131614 52 0 0.0 0.0 0.00 0.00 0.00 94 1012.3
20260831124603 51 0 0.0 1.0 0.00 0.00 0.00 93 1012.2
20260831123054 51 0 0.0 1.0 0.00 0.00 0.00 93 1012.1
20260831121559 50 0 0.0 1.0 0.00 0.00 0.00 92 1012.3
20260831120103 50 0 0.0 1.0 0.00 0.00 0.00 92 1012.3
20260831114601 50 102 0.0 0.0 0.00 0.00 0.00 93 1012.3
20260831113105 49 0 0.0 0.0 0.00 0.00 0.00 93 1012.1
20260831111558 49 0 0.0 0.0 0.00 0.00 0.00 93 1012.1
20260831110101 49 0 0.0 0.0 0.00 0.00 0.00 93 1012.1
20260831104559 50 0 0.0 0.0 0.00 0.00 0.00 93 1012.0
20260831103058 50 0 0.0 1.0 0.00 0.00 0.00 93 1012.0
20260831101614 50 0 0.0 0.0 0.00 0.00 0.00 92 1011.9
20260831100100 50 0 0.0 0.0 0.00 0.00 0.00 92 1011.8
20260831094558 50 0 0.0 0.0 0.00 0.00 0.00 91 1011.7
20260831093057 50 0 0.0 1.0 0.00 0.00 0.00 92 1011.6
20260831091559 51 0 0.0 1.0 0.00 0.00 0.00 91 1011.7
20260831090109 51 0 0.0 0.0 0.00 0.00 0.00 90 1011.7
20260831084600 51 0 0.0 0.0 0.00 0.00 0.00 90 1012.0
20260831083055 52 0 0.0 1.0 0.00 0.00 0.00 90 1012.0
20260831081556 52 0 0.0 0.0 0.00 0.00 0.00 90 1011.8
20260831080104 53 0 0.0 1.0 0.00 0.00 0.00 90 1011.9
20260831074600 53 0 0.0 0.0 0.00 0.00 0.00 90 1012.1
20260831073102 54 0 0.0 0.0 0.00 0.00 0.00 89 1012.2
20260831071554 54 0 0.0 1.0 0.00 0.00 0.00 89 1012.1
20260831070100 55 0 0.0 0.0 0.00 0.00 0.00 89 1011.9
20260831064559 55 0 0.0 0.0 0.00 0.00 0.00 88 1011.9
20260831063058 55 0 0.0 1.0 0.00 0.00 0.00 88 1011.9
20260831061609 56 0 0.0 0.0 0.00 0.00 0.00 87 1011.9
20260831060108 56 0 0.0 0.0 0.00 0.00 0.00 87 1011.9
20260831054601 56 0 0.0 0.0 0.00 0.00 0.00 86 1011.9
20260831053058 57 0 0.0 1.0 0.00 0.00 0.00 85 1011.9
20260831051622 57 90 0.0 1.0 0.00 0.00 0.00 84 1011.8
20260831050104 58 56 0.0 2.0 0.00 0.00 0.00 83 1011.9
20260831044558 59 0 0.0 1.0 0.00 0.00 0.00 81 1011.9
20260831043058 59 0 0.0 1.0 0.00 0.00 0.00 79 1011.8
20260831041614 60 0 0.0 1.0 0.00 0.00 0.00 78 1011.6
20260831040107 61 72 0.0 1.0 0.00 0.00 0.00 76 1011.5
20260831034559 62 0 0.0 1.0 0.00 0.00 0.00 73 1011.4
20260831033101 64 0 0.0 1.0 0.00 0.00 0.00 71 1011.3
20260831031555 65 0 0.0 3.0 0.00 0.00 0.00 69 1011.3
20260831030113 66 0 0.0 1.0 0.00 0.00 0.00 66 1011.2
20260831024637 68 112 0.0 1.0 0.00 0.00 0.00 64 1011.1
20260831023056 70 0 0.0 1.0 0.00 0.00 0.00 61 1011.1
20260831021554 72 0 0.0 1.0 0.00 0.00 0.00 57 1011.1
20260831020059 74 106 0.0 1.0 0.00 0.00 0.00 55 1011.2
20260831014558 76 0 0.0 1.0 0.00 0.00 0.00 52 1011.4
20260831013112 77 88 0.0 2.0 0.00 0.00 0.00 51 1011.4
20260831011605 78 132 0.0 2.0 0.00 0.00 0.00 50 1011.3
20260831010100 79 77 0.0 3.0 0.00 0.00 0.00 48 1011.3
20260831004559 80 89 0.0 2.0 0.00 0.00 0.00 47 1011.3
20260831003100 81 291 0.0 2.0 0.00 0.00 0.00 46 1011.3
20260831001552 82 9 0.0 2.0 0.00 0.00 0.00 46 1011.3
20260830234605 82 118 0.0 8.0 0.00 0.00 0.00 47 1011.3
20260830233055 83 0 0.0 6.0 0.00 0.00 0.00 47 1011.2
20260830231557 83 302 0.0 3.0 0.00 0.00 0.00 46 1011.3
20260830230056 84 246 0.0 3.0 0.00 0.00 0.00 47 1011.3
20260830224600 84 315 0.0 2.0 0.00 0.00 0.00 47 1011.3
20260830223102 82 315 0.0 2.0 0.00 0.00 0.00 48 1011.5
20260830221600 82 261 1.0 4.0 0.00 0.00 0.00 49 1011.6
20260830220106 82 222 0.0 9.0 0.00 0.00 0.00 48 1011.8
20260830214602 82 229 2.0 7.0 0.00 0.00 0.00 49 1012.0
20260830213117 83 332 0.0 3.0 0.00 0.00 0.00 48 1012.2
20260830211555 82 322 0.0 2.0 0.00 0.00 0.00 50 1012.5